Theta_e
357 356 353 349 347 348 352 348 348 353 353 350 347 344 339 335 333 333 329 329 336 340 346 346 346 357 360 358 359 360 358 356 357 360 359 356 354 352 350 353 352 352 351 353 354 354 354 352 351 350 348 346 343 340 338 338 339 336 336 336 336 336 335 335 334 334 336 337 337 338 339 341 341 342
356 359 357 354 351 349 348 347 346 352 351 350 350 349 348 342 335 334 331 331 336 340 345 351 348 351 353 361 361 359 359 358 355 359 361 358 356 349 348 350 350 350 350 350 350 353 353 352 350 347 343 342 340 338 336 337 337 335 334 335 334 334 333 334 334 334 336 336 337 337 338 339 339 340
357 356 354 354 353 349 349 353 353 352 355 351 351 353 351 349 343 342 333 330 335 345 343 345 350 350 350 355 356 358 360 361 355 355 361 360 356 352 350 349 349 348 347 346 345 347 347 345 343 339 338 339 337 337 336 335 336 334 332 332 332 332 331 332 332 333 335 336 336 336 337 337 337 338
359 355 353 354 353 353 352 350 352 350 353 354 350 348 349 350 347 346 336 334 337 345 347 346 350 353 348 351 353 353 357 363 357 356 362 362 359 356 353 351 348 346 344 343 342 341 340 338 337 338 339 340 340 338 334 333 333 332 329 329 328 329 329 330 331 332 333 334 334 335 336 336 336 336
359 357 355 354 353 354 351 349 351 351 350 351 350 350 346 345 346 345 340 337 339 341 346 350 350 352 355 351 351 351 352 354 357 357 359 361 359 357 353 353 349 346 342 339 338 338 336 335 336 338 340 340 340 338 336 332 332 330 327 325 325 325 327 328 330 330 331 332 333 333 334 334 334 334
358 356 354 355 355 355 352 350 350 351 350 348 349 348 350 347 348 346 342 338 337 339 340 343 348 351 356 350 352 354 354 354 358 358 357 364 359 358 355 353 353 347 343 337 335 335 334 334 335 337 339 340 340 338 335 333 330 328 325 322 324 324 323 327 329 329 329 330 332 332 332 333 333 333
356 354 353 354 355 359 355 353 351 351 350 350 347 346 347 347 346 347 346 342 339 340 341 342 346 347 350 351 351 353 356 357 357 354 355 358 362 361 358 355 354 347 342 338 335 334 333 333 334 335 337 338 337 336 333 329 327 325 323 322 323 323 322 323 327 328 327 328 329 330 330 331 331 331
356 355 353 353 354 355 353 352 352 352 350 349 348 348 348 348 347 347 347 347 343 341 341 342 346 348 349 350 352 357 358 357 356 354 355 355 357 360 362 359 355 349 342 339 336 334 332 332 332 332 333 333 331 329 328 325 324 323 323 322 321 321 321 320 321 324 324 326 324 325 327 329 329 328
356 355 354 353 352 352 352 352 352 353 351 351 349 347 347 347 349 349 348 348 346 343 342 343 346 349 350 352 354 356 355 356 355 354 353 355 357 356 361 363 360 349 340 340 337 334 332 332 331 331 331 331 329 328 326 324 323 323 323 322 321 321 321 320 319 321 321 323 323 322 323 325 326 327
355 355 353 353 352 351 351 351 351 351 352 352 351 349 348 347 347 347 347 347 346 345 344 343 344 345 350 350 352 355 354 353 351 352 354 354 354 353 357 361 360 352 345 342 340 335 333 332 330 330 331 330 328 327 325 324 323 322 320 318 316 319 320 319 320 320 319 319 322 322 319 321 323 325
351 352 353 353 352 351 351 350 350 350 351 352 350 350 349 349 345 346 346 346 344 345 345 344 346 347 349 351 349 350 352 352 353 352 352 351 351 351 353 356 354 349 346 343 341 339 337 335 332 326 326 327 326 325 324 323 322 321 318 316 315 316 316 316 318 319 317 318 319 317 314 315 320 324
351 351 351 352 352 352 351 351 350 350 349 350 349 350 349 348 347 346 345 344 345 345 344 342 343 343 344 345 350 353 351 351 348 349 352 348 347 349 349 355 353 348 345 343 342 339 336 334 332 327 327 327 327 326 325 325 326 325 321 318 319 319 317 317 317 317 316 315 314 314 313 314 318 321
349 350 350 351 351 353 363 359 358 356 357 350 348 349 349 348 347 346 345 344 342 342 344 345 346 344 346 347 347 348 346 347 349 346 346 345 348 349 350 352 353 350 344 345 343 339 337 335 333 332 330 329 329 327 328 325 329 327 322 320 320 321 320 317 317 318 316 315 315 314 314 314 316 318
347 347 347 350 360 362 360 355 353 349 355 362 355 349 348 348 347 346 345 344 343 343 342 342 342 342 343 345 346 346 346 347 344 344 344 343 345 345 347 349 349 353 346 343 341 342 340 336 334 331 331 332 334 329 325 323 323 325 324 322 320 320 321 318 318 317 316 315 315 314 313 313 315 316
347 347 347 346 354 362 366 358 351 347 345 349 356 360 362 361 349 346 345 345 344 343 343 343 342 341 341 343 345 345 346 346 346 346 344 345 344 342 340 338 345 350 347 343 339 343 339 336 334 334 332 333 330 329 327 328 327 323 323 323 322 320 321 320 319 318 316 315 314 314 313 313 314 315
345 345 346 346 347 347 348 348 349 351 350 344 345 346 351 353 359 358 351 347 345 345 345 344 345 344 343 345 345 346 345 346 345 344 343 343 343 343 340 336 338 341 353 347 343 345 339 337 337 335 337 336 333 332 329 327 327 324 323 323 322 321 321 321 321 321 320 318 317 317 316 316 316 316
344 344 344 345 345 346 356 356 349 345 345 345 342 341 342 346 345 341 341 347 352 348 346 346 345 346 347 346 347 348 346 345 344 342 341 340 340 340 337 338 337 342 351 346 340 342 342 336 341 336 340 341 338 336 331 329 327 325 323 323 323 322 321 321 321 321 321 319 317 317 317 316 316 315
344 344 343 343 343 344 345 346 345 343 342 342 343 344 344 344 349 348 342 342 343 349 350 348 347 348 349 348 349 352 349 346 346 344 344 342 340 340 341 343 342 343 353 347 341 342 341 341 341 341 346 348 344 340 334 328 326 325 323 322 321 321 320 320 320 320 320 319 317 315 314 314 314 314
345 344 344 343 342 343 343 343 345 342 341 339 339 339 340 342 343 344 345 346 348 350 351 352 352 352 351 351 351 351 351 351 351 350 348 346 345 344 341 343 344 347 352 350 347 342 345 342 343 348 350 351 351 350 335 327 325 324 322 322 322 320 319 319 320 319 318 318 316 314 313 312 312 311
346 345 343 342 341 341 341 347 342 348 346 340 338 337 338 340 342 344 348 338 341 350 350 350 352 354 355 346 353 355 355 353 353 354 351 348 345 345 343 344 344 345 346 354 349 342 343 346 344 344 344 339 342 342 333 327 324 323 321 322 321 319 317 318 318 318 317 317 316 314 312 309 309 309
346 345 344 342 341 340 340 341 331 331 344 342 340 339 338 339 341 342 346 338 331 331 330 331 333 333 333 333 331 329 331 345 347 346 343 344 346 342 341 341 340 341 344 347 353 347 342 347 344 344 337 332 336 336 333 324 322 321 320 320 320 318 317 316 316 316 316 316 315 315 314 310 308 310
345 346 354 356 344 341 341 335 329 329 336 337 338 339 339 339 340 342 346 350 349 331 326 326 327 328 329 329 329 330 330 329 335 339 339 343 342 340 340 339 340 342 341 347 351 341 344 348 341 341 333 330 329 328 327 322 322 321 318 317 318 317 316 316 315 316 316 316 315 314 312 310 309 312
344 345 352 356 352 348 343 331 329 328 336 339 339 340 340 340 340 343 346 347 349 349 348 348 345 342 339 341 340 342 335 334 344 340 342 343 342 340 339 339 337 336 338 342 350 345 338 340 336 337 332 331 332 328 325 323 320 320 322 321 317 316 316 316 314 313 314 314 314 314 311 309 309 314
340 342 343 346 335 329 329 327 324 323 323 340 344 344 343 343 342 346 346 349 350 351 353 353 353 351 351 350 348 347 347 347 348 342 342 342 343 341 341 340 337 335 333 335 346 343 336 336 335 337 337 332 329 330 323 320 320 320 319 319 318 317 318 318 315 313 311 312 313 313 312 309 310 314
342 342 343 345 338 326 323 321 320 319 319 326 341 344 345 346 346 349 346 348 360 353 352 352 353 353 352 351 351 349 348 347 347 345 341 343 343 342 341 339 338 338 340 343 340 340 336 335 334 331 334 338 334 329 324 321 320 319 320 319 317 316 316 316 317 316 312 310 309 309 309 310 309 313
344 344 345 345 340 327 322 319 317 316 318 320 334 341 328 329 329 340 346 347 347 347 347 348 348 349 350 351 350 350 349 348 348 347 345 342 343 344 344 343 340 339 340 345 336 342 339 338 339 337 334 331 333 331 327 322 322 319 319 318 317 316 316 316 317 316 315 314 314 310 311 311 311 311
347 348 348 351 348 325 318 314 314 314 316 320 329 322 321 322 323 334 338 341 343 345 346 346 347 347 349 349 349 350 351 351 351 351 350 348 345 345 346 346 346 345 347 346 346 345 342 339 341 338 336 334 333 327 325 326 326 320 318 318 318 317 316 315 315 315 315 315 315 312 309 309 310 312
346 346 348 338 312 310 306 306 309 311 314 324 317 315 317 318 324 332 335 336 340 342 342 343 345 346 348 350 350 351 353 354 354 354 354 353 352 349 348 348 348 348 348 348 347 345 343 341 341 341 339 336 333 332 332 329 327 320 320 321 319 318 317 316 315 318 320 316 315 315 314 313 314 313
341 333 322 315 314 315 313 313 315 320 322 315 311 313 315 323 330 333 335 337 340 340 342 343 345 346 348 350 351 353 354 355 356 354 355 356 355 354 353 352 351 350 350 351 350 349 345 344 344 343 340 339 337 337 337 338 333 324 322 321 317 319 319 317 316 314 316 316 315 314 314 314 315 319
317 314 313 313 314 317 323 334 337 338 339 329 320 316 318 328 332 334 337 338 339 340 342 343 344 346 348 350 352 353 353 352 353 354 354 354 354 354 353 352 352 353 353 353 352 352 350 348 346 346 343 341 341 341 341 340 339 336 327 326 326 328 323 319 317 316 318 316 316 316 316 316 316 319
336 336 335 334 326 323 324 324 326 328 332 336 336 334 333 332 334 335 337 339 340 341 342 343 344 347 349 351 350 351 350 350 351 352 351 351 351 351 351 350 350 351 353 355 355 354 353 352 350 347 344 343 341 341 342 341 340 339 332 328 328 329 327 321 320 318 316 317 317 318 318 317 318 326
332 334 332 333 341 341 341 340 338 337 336 336 336 338 339 339 339 340 340 342 341 342 344 345 345 346 347 347 349 350 350 350 351 351 350 349 349 349 348 346 346 347 348 350 353 354 356 353 352 350 348 346 343 344 343 342 342 342 342 334 330 332 330 323 321 319 319 317 316 317 318 318 317 318
324 330 335 338 339 341 341 342 342 343 343 342 341 341 341 341 341 340 339 338 339 340 340 341 342 343 345 346 348 348 348 349 350 351 350 349 349 348 347 345 345 344 343 344 346 349 351 353 352 352 349 348 348 347 345 342 344 346 345 342 332 331 332 329 326 323 319 317 317 318 318 320 320 319
320 329 334 337 338 339 340 341 341 342 343 343 343 343 337 342 343 342 341 341 341 341 341 342 341 342 343 344 346 347 347 349 350 349 342 349 349 346 346 345 345 346 344 344 345 345 345 348 350 350 350 350 350 349 348 345 344 345 346 347 338 335 335 334 330 326 320 320 319 318 319 320 322 322
329 331 332 335 337 339 341 341 342 343 343 342 342 343 343 343 343 340 342 343 341 340 340 340 341 342 342 343 344 345 346 347 349 350 347 347 347 347 346 345 345 345 345 344 344 345 343 343 342 343 342 344 347 350 349 350 347 346 346 346 346 342 340 337 334 328 323 322 323 322 322 323 323 325
325 329 330 332 335 338 339 341 342 343 344 344 344 344 343 343 343 343 343 343 344 343 342 341 340 341 342 343 343 344 345 343 346 347 347 347 346 346 346 346 345 345 345 345 345 346 343 343 342 340 339 338 339 340 343 344 347 350 347 346 347 346 346 342 336 332 327 325 325 325 325 325 326 327
326 330 331 332 335 337 338 340 342 344 345 345 344 345 344 344 344 345 345 344 345 344 345 344 343 343 343 342 342 341 342 343 344 344 345 346 346 346 345 344 343 344 344 346 347 346 344 343 342 341 340 338 337 336 340 347 339 340 353 349 349 349 348 344 335 330 329 329 327 326 327 329 330 331
328 331 332 334 335 337 338 340 341 342 344 344 345 345 345 345 346 347 348 347 346 344 344 344 344 343 344 344 344 345 345 345 345 345 343 345 344 344 344 344 344 343 343 345 345 346 347 345 343 342 341 339 338 338 339 343 346 341 336 351 351 351 349 345 337 334 332 330 330 330 330 329 331 332
328 330 332 332 334 335 336 338 340 341 344 345 345 345 345 346 347 348 348 347 348 347 347 346 345 344 344 346 345 345 345 345 345 344 344 345 344 343 343 342 342 343 342 342 344 346 346 346 345 345 344 342 341 342 344 342 341 347 340 328 349 353 351 347 345 342 339 332 329 331 331 332 326 324
327 326 326 326 325 326 326 327 329 331 333 336 340 345 346 346 347 347 348 347 348 348 348 346 344 341 345 345 343 346 346 346 345 345 344 343 342 342 342 342 342 342 341 341 341 343 344 345 346 346 346 347 347 349 345 341 343 344 346 338 323 343 354 349 347 347 342 339 334 329 328 327 327 325
319 319 319 320 320 320 319 320 322 325 327 330 331 329 334 338 344 347 348 349 348 348 348 348 347 346 346 347 346 345 344 342 343 343 343 342 340 339 337 335 339 340 339 339 340 341 342 344 344 334 344 344 344 339 336 337 338 342 343 346 326 321 329 339 353 350 348 344 334 331 331 329 327 325
314 314 314 315 315 315 316 316 318 320 323 325 326 327 329 331 333 331 338 342 347 348 349 349 348 344 345 346 346 341 342 342 342 341 340 341 341 339 336 336 338 339 339 339 340 342 342 344 342 341 343 341 338 337 337 337 338 340 343 345 345 328 323 324 328 334 353 343 332 331 329 328 326 325
313 311 311 312 313 314 314 315 316 318 319 320 321 322 324 326 328 329 332 334 338 344 347 347 345 342 342 344 345 345 344 343 343 342 342 340 340 340 340 340 339 339 340 340 342 343 341 342 342 342 342 341 340 339 337 338 339 339 340 341 343 342 340 327 323 323 326 327 326 335 338 335 325 323
309 309 309 311 311 311 312 313 314 315 316 316 317 318 319 320 321 324 327 329 331 333 334 337 342 343 341 342 344 345 345 345 345 344 342 340 340 340 340 340 338 338 339 339 340 341 341 341 341 341 339 338 338 337 337 338 337 338 339 341 340 339 339 334 332 325 324 323 320 318 323 327 330 332
307 308 308 309 309 309 310 311 312 312 312 313 313 313 314 314 316 318 321 325 327 328 328 330 333 336 341 344 346 346 346 337 340 343 342 341 340 339 338 339 338 337 338 339 338 339 340 340 340 341 341 339 339 338 337 337 337 338 338 338 338 340 341 331 330 329 331 332 329 321 316 318 320 321
Wind_Speed
4 3 4 3 4 3 2 3 3 2 1 1 3 3 3 4 1 1 2 2 1 2 1 0 2 0 1 2 1 1 3 4 3 3 4 4 4 7 8 7 6 5 6 6 6 5 5 4 5 5 5 3 3 4 4 5 5 7 7 8 8 8 9 9 9 8 8 8 8 9 8 9 11 10
3 3 4 4 5 4 2 3 2 3 2 2 2 3 3 4 1 2 0 3 2 2 3 0 2 3 3 3 4 3 4 7 5 4 4 4 5 8 8 7 6 6 6 7 7 6 6 6 5 5 5 4 3 3 4 5 6 7 7 8 8 8 9 9 8 8 8 8 9 9 9 10 10 10
3 4 5 4 4 3 2 1 3 1 2 2 0 1 2 2 3 4 2 0 2 1 2 2 1 2 3 4 4 4 4 5 7 4 4 5 8 7 6 8 7 7 7 7 7 7 7 6 5 5 5 4 2 2 4 6 6 6 7 7 7 7 8 8 8 7 8 8 8 9 9 10 10 10
3 4 4 4 4 4 2 1 2 3 2 0 1 0 2 1 2 4 2 2 5 3 2 4 4 3 3 5 4 4 3 3 4 4 4 4 5 4 4 7 8 8 8 8 8 8 8 7 6 6 6 6 4 2 2 4 5 6 6 6 6 6 6 7 7 7 7 8 8 8 9 10 11 11
3 3 4 4 4 3 2 4 2 2 3 4 3 2 1 3 2 2 2 2 6 4 2 3 3 3 3 3 1 3 4 5 3 2 3 3 3 3 5 5 8 9 9 9 9 9 8 8 7 7 6 7 5 3 3 3 4 4 5 5 5 4 5 6 7 7 7 7 8 8 9 9 10 11
4 3 4 4 5 3 3 3 3 2 3 3 3 4 3 4 4 2 2 3 2 6 3 3 4 3 0 3 1 2 4 4 3 3 3 3 3 4 4 4 5 10 10 10 10 10 9 9 8 7 7 8 6 4 4 4 3 3 3 4 3 3 4 5 5 6 6 7 7 7 8 8 9 10
4 4 4 5 4 3 3 3 3 3 3 2 2 4 3 3 5 3 3 2 3 4 6 2 2 2 1 2 3 3 2 3 3 4 4 4 4 4 5 5 5 8 12 12 11 11 10 9 9 8 8 8 8 6 6 5 4 3 1 2 3 3 3 4 4 5 6 7 7 7 7 7 8 10
5 5 4 4 4 3 3 4 4 4 3 3 3 4 4 3 4 4 3 4 4 3 4 4 3 3 3 3 3 3 3 4 5 3 4 3 4 5 5 6 5 7 12 12 12 11 10 10 10 10 9 9 8 8 7 6 5 4 2 1 2 3 4 4 4 5 5 5 5 5 6 7 8 9
6 6 6 6 4 3 4 4 4 4 4 5 3 4 4 4 4 3 3 4 4 4 5 5 3 2 2 2 3 3 4 5 4 4 4 5 5 4 4 4 5 6 10 11 11 10 10 10 9 10 10 9 8 8 8 7 6 5 4 3 2 2 4 4 4 5 5 5 5 4 5 6 7 7
5 6 6 5 5 4 5 5 5 4 5 5 5 5 5 4 3 4 4 3 3 3 5 4 5 2 3 3 4 4 3 4 5 6 6 5 3 2 3 4 4 2 4 4 6 6 7 8 9 10 10 9 8 9 9 9 8 7 5 5 3 3 3 4 4 4 6 5 6 5 5 6 7 7
6 6 6 6 6 6 6 6 6 6 5 5 6 6 6 5 4 4 5 4 4 4 5 4 4 5 4 3 5 5 1 2 4 4 6 6 3 1 3 5 3 1 3 4 6 6 5 6 6 9 11 10 9 10 10 10 10 8 7 6 5 4 4 4 5 4 5 6 7 6 5 6 6 7
6 7 7 7 7 7 7 7 7 6 7 5 6 7 5 5 5 6 6 5 5 5 4 5 6 4 4 3 4 3 3 4 4 3 4 5 6 7 2 4 4 3 3 4 4 4 5 5 7 9 9 10 10 11 11 12 11 11 9 7 6 5 5 5 5 5 5 5 7 7 5 5 5 6
7 6 7 7 7 7 10 12 10 9 9 6 7 7 5 5 5 6 6 6 6 6 6 7 5 4 5 6 5 6 5 6 8 3 1 3 5 4 5 5 4 5 5 4 3 5 5 5 6 5 6 7 8 10 11 9 11 12 10 9 7 7 6 6 6 6 5 6 7 6 6 6 6 6
7 8 7 7 11 13 13 13 14 14 14 13 10 8 6 7 6 6 6 7 7 6 7 7 7 7 7 8 7 6 6 5 3 4 4 4 6 4 4 5 4 5 5 4 4 6 3 5 5 5 8 7 6 7 6 10 10 10 12 11 9 8 7 7 7 7 6 6 7 5 5 6 6 5
8 7 7 7 9 11 11 11 14 15 15 15 15 16 14 10 8 7 8 8 7 6 7 7 6 7 8 9 7 7 7 4 5 5 4 5 4 4 4 5 6 1 6 3 3 5 4 6 6 7 8 7 6 7 9 14 13 13 11 12 11 10 8 8 8 8 7 6 7 5 4 4 5 4
8 8 8 7 7 7 9 9 8 10 13 15 15 16 16 16 15 14 10 9 7 6 7 8 8 7 8 9 6 7 4 7 5 5 5 5 5 6 4 3 3 3 3 4 3 6 2 5 6 6 8 7 7 9 12 13 14 14 14 12 11 10 9 9 8 8 7 7 7 6 6 6 5 5
9 8 8 8 7 8 13 11 9 8 9 11 14 14 15 14 14 14 15 14 11 8 8 8 9 9 7 7 8 6 4 3 4 5 5 4 4 5 5 6 5 6 4 2 3 5 3 6 5 7 9 7 6 8 11 15 15 14 14 14 13 12 11 10 9 9 9 8 7 7 7 6 5 5
9 9 9 9 9 8 8 7 7 7 7 7 6 6 6 7 10 14 16 17 18 13 10 9 10 10 6 9 9 8 4 4 6 6 7 5 4 5 8 7 7 5 2 5 2 4 4 5 5 6 8 6 6 7 10 14 15 15 15 15 14 13 12 11 11 10 9 8 7 7 8 7 7 6
10 9 9 9 10 9 8 8 10 9 9 8 8 8 9 9 8 8 8 8 9 9 9 10 11 12 9 10 10 8 5 7 8 7 7 5 5 5 3 3 3 5 4 3 2 6 6 2 3 6 7 5 6 6 8 12 14 15 15 15 15 13 13 12 12 11 11 9 8 8 9 9 8 7
9 10 9 9 10 10 10 12 16 14 10 8 9 9 9 9 9 9 10 13 12 11 10 10 12 12 12 12 9 8 6 6 6 4 1 1 3 3 5 7 4 5 4 5 5 3 5 4 5 6 4 2 5 5 4 6 11 14 15 15 15 14 13 13 12 12 11 10 10 9 9 10 9 8
8 8 9 9 10 10 10 14 16 16 14 9 10 10 10 10 9 10 9 11 14 16 16 17 17 17 17 16 13 12 11 9 5 0 2 7 7 6 8 9 7 8 3 4 7 5 6 6 5 6 3 2 4 6 6 3 6 12 14 15 15 13 13 12 12 12 12 11 11 10 10 11 10 8
8 9 13 13 11 11 12 15 16 17 12 9 10 10 11 11 11 10 9 6 7 13 15 15 16 16 15 15 15 14 15 16 7 5 9 11 5 7 7 9 8 6 2 6 6 3 7 6 3 4 2 2 3 5 4 3 3 6 9 12 12 11 11 12 12 12 11 12 11 11 11 11 9 5
8 9 11 16 15 13 15 17 16 16 12 10 10 10 9 10 11 10 8 6 7 6 5 6 7 9 12 12 10 12 17 16 9 8 11 8 6 9 9 8 6 6 7 7 9 6 5 4 5 4 1 3 5 2 2 2 3 4 4 5 7 10 10 10 10 11 11 11 11 11 11 11 8 5
6 8 8 10 14 17 17 17 16 16 15 11 9 7 8 10 12 9 6 7 7 6 7 8 7 9 8 7 7 8 9 10 9 10 10 9 8 9 9 8 8 8 5 3 8 8 4 4 4 4 7 5 3 2 1 2 3 4 5 5 7 8 9 9 8 11 11 10 11 11 11 11 10 5
8 8 7 7 11 16 17 17 18 17 16 13 10 9 10 11 12 5 4 5 8 7 7 7 7 7 6 7 7 7 7 8 8 8 9 9 9 9 9 9 8 10 11 7 9 5 5 5 4 2 3 3 4 2 2 2 3 6 6 7 7 6 6 7 5 6 8 11 11 11 11 11 13 10
7 8 7 7 9 12 14 16 16 17 16 15 9 12 16 16 14 9 5 5 6 6 6 6 6 6 7 7 7 7 7 8 8 8 8 9 10 10 10 11 10 9 10 7 15 9 6 4 8 6 4 3 7 4 4 4 5 5 5 6 7 6 7 6 6 6 6 6 7 9 9 12 13 16
7 6 6 8 9 10 10 11 13 14 16 13 11 17 16 16 13 7 5 5 6 7 7 7 7 7 7 7 8 8 8 8 8 8 8 8 9 9 10 11 11 12 12 5 8 8 8 6 4 8 8 6 7 3 3 4 4 2 3 7 7 7 6 6 8 7 6 7 7 9 11 11 13 15
7 7 6 4 8 9 9 8 7 7 8 8 13 11 12 11 7 5 6 6 7 7 7 8 8 9 8 8 9 9 8 8 8 8 8 8 9 9 9 10 12 12 12 11 7 7 8 9 8 7 9 8 7 8 8 4 3 5 6 3 5 6 7 8 8 7 7 7 6 6 6 7 7 7
8 10 12 14 16 14 14 15 13 9 7 9 11 12 10 6 4 5 5 6 6 6 8 9 9 9 9 9 10 9 8 8 6 5 6 7 8 9 10 11 11 11 10 10 10 10 10 11 12 9 7 7 9 9 7 9 5 5 6 5 3 8 9 9 9 9 9 7 8 8 10 9 7 8
12 13 13 15 15 14 13 10 7 7 8 7 9 9 6 3 5 4 5 5 6 8 8 9 9 10 8 8 9 10 8 7 8 7 8 8 8 8 9 9 10 11 12 12 12 12 12 12 12 11 9 8 9 9 8 8 8 6 6 8 7 1 6 8 10 9 9 10 10 10 9 8 9 8
5 7 7 6 9 9 13 13 12 10 10 8 7 6 6 6 6 6 6 7 8 9 9 9 9 9 9 8 7 8 8 9 9 8 10 9 10 9 9 10 12 10 11 12 12 13 12 12 12 11 10 9 8 10 10 8 9 8 7 8 7 9 6 9 9 10 10 10 7 7 6 6 7 9
6 7 7 8 6 5 6 6 5 5 5 7 7 7 7 7 8 9 11 10 9 10 10 9 9 8 7 8 9 8 8 10 10 9 8 9 10 8 7 8 12 10 9 8 9 10 11 11 10 9 11 10 10 9 7 8 10 10 10 8 9 9 4 9 9 10 10 7 5 8 9 9 10 9
7 6 5 5 6 6 6 7 7 7 6 6 6 7 7 7 7 7 7 9 10 10 8 10 10 10 9 10 9 9 9 10 11 8 8 9 9 8 6 10 11 9 9 9 8 7 6 7 7 9 9 9 10 10 9 9 9 9 10 8 8 9 7 7 7 8 6 7 9 9 8 9 10 11
5 5 5 5 5 7 7 8 8 8 7 7 7 6 7 7 7 8 8 9 10 9 9 9 9 10 9 9 8 9 10 10 9 9 9 10 8 8 9 11 12 10 10 11 9 8 6 6 5 6 5 7 7 10 11 11 11 8 8 7 8 9 9 8 8 7 11 11 11 9 9 10 11 11
4 6 6 6 6 6 7 7 8 8 8 8 8 8 7 7 8 8 9 9 9 9 9 9 9 9 8 9 9 9 10 10 10 9 8 8 8 10 11 12 13 11 10 10 9 7 6 6 5 5 3 4 6 9 10 11 9 9 5 6 6 8 8 9 8 8 9 8 5 9 10 9 9 11
6 7 7 7 6 6 7 8 8 8 8 8 8 8 8 8 8 8 9 10 9 9 9 9 9 9 9 9 9 9 9 9 10 9 8 7 9 11 11 12 12 11 10 10 11 8 7 8 8 8 8 7 6 9 7 12 18 11 10 9 7 8 9 7 9 8 9 9 9 9 11 12 13 10
7 6 6 7 7 7 7 8 8 8 8 8 8 8 9 9 8 8 9 9 9 9 10 9 9 9 9 9 9 9 9 9 10 9 9 9 10 11 11 11 12 11 10 11 10 9 7 8 9 9 9 8 8 10 12 4 17 20 11 11 10 9 9 7 7 8 10 11 11 11 13 12 12 10
7 7 7 6 7 7 8 8 8 8 8 8 8 9 9 9 9 9 9 8 9 9 9 9 10 9 9 8 8 9 9 9 9 10 9 9 10 11 10 12 12 11 11 11 10 10 8 8 9 9 9 9 8 10 12 8 4 9 18 15 12 10 8 7 8 9 10 10 12 12 10 10 13 11
6 7 7 8 8 9 9 9 9 9 9 8 8 8 9 9 9 9 9 9 9 10 9 9 9 8 8 8 8 8 9 9 10 10 10 10 11 11 11 12 12 11 9 11 10 9 8 10 9 8 9 10 12 13 13 7 8 8 12 22 14 9 9 10 11 10 9 8 10 8 8 9 4 1
9 9 9 9 9 10 10 11 11 11 11 11 11 11 10 10 9 9 9 10 9 9 9 9 8 7 7 7 7 8 10 12 12 11 10 10 11 11 12 12 11 11 8 10 11 10 9 10 8 8 9 12 14 15 5 4 7 5 6 12 21 17 11 8 10 10 10 10 7 7 10 6 10 3
8 8 8 9 9 10 10 10 11 11 11 10 10 11 11 12 12 10 9 10 9 10 10 9 8 9 8 9 11 11 12 12 11 10 10 10 12 12 15 13 11 11 10 12 13 12 13 9 9 13 11 10 10 3 4 5 10 11 9 10 14 22 21 16 13 11 12 8 9 11 11 11 11 7
6 6 6 7 8 9 10 11 11 11 11 10 10 10 11 10 10 14 13 12 12 12 11 11 8 5 7 10 10 8 9 11 11 10 10 10 11 12 15 12 12 12 10 13 14 13 3 5 11 12 9 8 4 7 9 10 12 13 10 7 5 14 22 23 21 17 13 8 9 7 6 6 3 5
4 5 5 6 7 8 8 9 10 10 10 10 10 10 11 11 10 11 10 10 10 10 9 9 6 7 9 10 9 10 11 13 12 10 10 10 11 12 13 12 11 12 11 12 13 7 4 5 7 9 8 8 8 8 11 13 11 10 11 9 8 3 7 14 19 22 19 7 15 18 17 13 7 6
3 5 5 6 7 8 9 9 9 9 9 10 10 10 9 10 11 11 10 10 10 10 9 10 7 6 10 12 10 10 11 12 11 10 11 11 11 11 12 12 11 11 10 11 12 9 6 7 8 8 9 8 8 9 13 11 10 10 10 10 7 4 4 2 2 5 7 10 12 14 17 19 21 23
4 5 6 6 7 7 8 8 8 9 9 9 9 9 9 9 9 10 10 10 9 10 10 9 9 9 8 8 9 11 11 12 11 11 9 9 9 10 10 11 10 10 11 11 11 11 7 8 9 9 8 9 8 11 12 11 11 10 9 8 12 9 5 3 4 4 6 8 15 12 11 16 18 19
Wind_Direction
284 300 293 287 289 278 268 304 317 308 324 231 154 162 145 154 118 322 345 291 276 311 318 101 291 75 251 270 225 269 268 252 198 203 200 212 224 228 225 217 195 195 210 197 194 195 199 209 239 259 279 299 327 352 358 348 350 9 16 20 26 27 24 24 23 24 21 15 10 0 356 2 11 6
280 296 307 311 306 284 252 312 276 280 229 210 167 158 150 139 143 172 174 279 231 273 316 257 326 319 339 305 287 230 242 241 217 209 207 216 228 226 217 214 200 201 215 204 192 195 199 210 228 261 278 291 316 350 340 337 348 8 15 17 26 27 22 23 20 21 18 17 13 2 357 1 4 5
268 289 298 303 292 290 293 336 311 293 241 288 248 109 117 115 130 144 128 10 290 219 330 303 297 308 315 314 295 285 251 237 217 213 215 223 231 222 216 213 204 208 220 213 200 197 200 206 222 245 270 280 305 347 327 335 345 8 13 14 21 28 26 18 17 17 18 18 15 5 358 0 3 4
266 279 290 284 271 285 342 350 320 333 315 212 325 354 112 104 133 127 128 182 257 276 255 278 292 270 288 304 332 335 316 285 217 224 224 236 232 208 217 211 209 210 218 217 208 202 201 207 214 233 259 277 291 310 319 318 339 3 11 13 14 19 25 16 12 15 15 17 14 9 358 359 6 2
258 265 272 282 274 256 253 274 299 332 327 335 325 313 272 199 175 145 152 231 285 295 262 256 273 311 334 324 15 351 328 324 333 305 282 272 223 217 215 216 214 214 216 218 214 208 205 210 215 227 249 267 277 291 288 305 332 0 12 9 359 5 13 15 10 11 15 15 12 9 360 359 5 5
254 251 261 279 282 266 244 262 292 270 313 327 321 303 286 294 265 202 159 213 214 280 315 317 312 296 304 309 278 348 330 324 329 310 263 253 245 240 230 221 224 214 214 217 216 213 209 212 219 224 239 256 265 268 278 281 308 328 22 357 337 356 346 7 5 7 14 16 15 8 4 360 3 4
244 257 256 263 271 279 274 275 265 279 272 254 253 277 269 266 278 261 211 171 236 264 280 237 287 263 294 242 276 296 280 281 276 290 290 257 241 236 221 220 231 212 215 217 216 215 212 214 219 223 232 246 256 261 258 261 273 302 359 331 329 329 333 323 351 358 3 8 16 10 1 3 2 5
231 237 250 256 256 269 266 266 272 273 267 260 242 255 272 267 273 273 215 212 217 233 271 303 283 270 301 296 280 278 297 299 308 279 278 268 240 232 220 219 226 214 211 216 216 217 216 217 220 225 229 237 248 253 256 253 256 266 259 240 292 300 300 310 319 330 353 347 7 9 356 1 5 4
222 229 228 243 247 250 255 266 269 268 273 267 248 233 250 254 258 274 235 234 219 227 244 267 272 270 278 257 278 274 286 309 309 308 296 289 287 261 230 220 228 222 207 218 222 222 222 223 226 231 233 236 241 249 254 251 249 251 252 239 232 271 289 296 301 314 323 328 338 3 346 356 359 351
224 225 230 232 229 231 230 246 250 254 258 264 264 268 259 237 242 257 273 252 231 224 245 243 290 313 260 292 274 263 245 284 302 309 304 306 292 258 290 251 225 176 166 187 220 234 240 241 240 241 242 239 239 247 252 252 250 246 245 238 231 249 281 292 294 299 307 312 317 338 355 357 357 354
224 228 232 232 227 228 228 234 237 240 246 242 248 244 250 260 239 242 246 244 239 236 250 267 242 265 274 235 279 290 301 247 225 258 304 310 293 253 223 265 256 186 208 224 219 219 218 227 235 246 249 247 241 245 250 252 249 248 241 236 224 225 246 269 280 287 294 301 305 315 344 353 0 3
225 225 227 229 226 224 226 223 231 221 234 230 241 242 238 246 252 261 260 261 253 255 257 249 269 241 258 290 257 290 334 312 303 217 210 258 289 300 281 223 234 229 203 231 228 217 213 231 241 254 257 247 241 242 251 250 249 246 239 234 227 217 221 244 259 262 276 284 291 301 324 354 359 12
228 228 227 229 230 225 226 223 224 224 220 218 231 246 228 240 242 253 258 252 254 256 253 272 262 271 280 267 275 287 276 255 251 241 158 257 265 268 297 286 229 202 200 221 219 234 205 217 236 239 257 243 222 239 234 249 241 241 237 232 226 218 213 228 243 248 255 270 276 292 317 344 0 13
232 231 228 232 228 230 234 235 236 238 239 234 226 233 222 225 225 232 242 247 242 242 252 251 254 262 259 259 248 246 246 239 261 293 280 275 285 316 290 285 263 203 178 172 221 251 188 199 241 227 247 249 214 232 223 232 228 227 226 227 222 217 213 218 236 242 242 256 268 275 298 316 340 355
238 241 238 239 245 246 245 244 241 241 243 246 244 242 238 222 210 224 228 236 233 233 237 245 245 241 253 257 247 241 253 248 238 245 252 261 282 279 279 287 306 225 169 174 196 264 199 173 219 235 241 246 221 225 231 232 227 223 221 222 218 215 209 214 228 237 235 244 256 263 262 291 311 336
232 238 240 239 238 238 237 239 245 244 244 244 246 248 248 247 237 228 219 228 237 226 234 242 238 235 240 253 251 256 248 256 259 248 243 246 252 260 244 231 234 256 169 178 191 266 190 181 210 247 248 240 227 229 233 232 228 220 219 219 216 211 206 210 220 233 235 232 240 239 240 248 280 310
228 229 233 240 236 240 236 236 237 239 247 245 242 245 251 254 250 248 247 242 237 228 225 234 244 230 237 246 250 228 226 203 243 266 258 245 229 227 241 241 252 274 201 172 247 263 215 168 199 230 253 239 230 238 233 230 225 219 215 217 215 209 203 205 214 228 234 233 233 233 233 233 254 289
233 232 232 235 242 238 238 235 231 229 231 239 248 250 244 243 251 247 239 238 240 238 234 231 239 244 209 236 243 242 210 216 244 247 255 245 246 239 235 235 229 248 171 193 195 286 268 189 193 234 258 233 233 232 231 223 222 216 212 214 213 207 201 201 208 219 228 229 229 228 231 226 227 249
236 235 233 235 241 245 238 235 233 236 240 241 246 253 256 252 250 247 245 239 235 235 231 234 238 248 238 236 246 250 213 216 232 234 248 246 241 251 277 306 248 265 228 187 145 250 267 180 196 247 262 265 254 245 236 222 217 211 209 211 212 206 199 199 203 209 220 225 223 224 227 227 220 226
236 235 233 232 238 242 243 242 238 236 238 241 246 250 254 259 256 251 242 239 236 231 230 232 238 242 246 241 240 242 230 227 240 256 328 307 254 279 291 270 271 252 251 195 183 232 265 223 205 256 261 277 267 264 250 226 211 209 207 209 210 205 197 199 200 204 213 219 219 218 223 229 225 221
242 244 241 239 241 243 243 244 238 238 235 241 243 246 250 253 256 257 255 241 239 243 243 242 243 247 254 259 257 258 256 246 248 313 307 265 253 262 272 270 270 265 233 224 201 209 253 252 213 258 273 257 260 270 252 209 208 210 208 209 210 205 200 198 200 202 209 216 218 216 218 224 227 221
240 236 234 233 236 241 247 245 240 239 231 234 238 241 246 252 254 258 256 256 245 235 240 248 253 257 262 262 261 257 254 252 228 195 236 248 236 240 232 255 253 275 253 235 177 168 231 258 211 233 298 330 255 257 255 195 187 199 214 215 211 210 205 201 202 202 208 214 218 218 218 221 222 214
240 245 244 242 238 236 240 242 242 240 228 232 233 235 240 249 254 254 257 251 256 259 254 253 245 255 250 250 246 248 247 248 232 209 229 243 221 237 239 241 263 286 263 229 175 207 250 219 256 200 285 275 276 260 264 201 181 181 190 201 213 217 208 209 206 208 212 215 219 221 219 219 204 214
253 249 254 254 251 248 247 244 240 239 229 229 238 232 237 246 253 248 241 242 243 251 243 247 241 245 247 246 240 241 247 245 226 219 220 224 218 225 238 237 222 229 246 263 177 188 248 180 247 202 203 235 275 262 348 283 203 195 186 192 216 210 203 210 218 216 217 220 223 223 221 213 197 206
252 253 245 246 244 241 243 245 247 247 242 232 239 235 240 241 249 261 237 251 248 249 249 249 247 246 245 247 244 241 240 241 236 222 217 219 213 213 225 233 233 240 244 234 173 181 229 187 233 206 258 194 219 236 264 265 235 204 199 198 212 200 185 207 200 212 215 224 228 227 224 213 205 206
265 264 261 256 253 250 247 247 248 251 252 243 235 245 242 253 263 265 264 271 268 263 262 262 261 256 249 246 243 241 239 237 236 228 219 215 215 213 216 219 224 241 249 218 174 200 215 249 232 232 231 225 263 212 248 268 240 209 188 201 211 206 190 196 194 215 206 205 217 218 216 212 211 214
279 283 285 278 296 311 300 284 273 266 262 259 245 247 254 257 270 294 285 276 278 275 271 264 259 255 251 253 250 242 242 238 231 232 225 220 216 220 225 227 227 234 248 233 178 196 192 230 205 199 229 215 245 259 207 240 263 132 195 213 211 206 191 186 206 213 203 205 217 206 210 214 214 216
269 278 286 320 337 320 332 338 339 305 276 251 274 288 276 277 283 262 266 258 252 257 262 263 263 260 254 250 252 247 241 243 233 233 235 233 224 222 226 228 231 236 242 243 212 192 195 221 236 216 211 215 220 238 256 239 196 181 207 201 207 211 198 197 213 212 209 204 202 201 199 221 214 205
265 276 293 301 301 299 293 290 291 294 279 256 247 253 261 263 238 233 230 244 240 239 239 244 249 251 247 244 250 253 248 244 240 239 246 241 237 230 231 232 229 229 229 234 228 208 203 211 229 228 207 206 216 233 225 249 194 209 195 147 219 215 206 202 208 210 211 199 206 199 207 206 205 198
292 293 290 290 293 295 291 286 279 275 269 244 224 225 212 206 212 210 223 235 238 243 245 243 246 250 251 247 244 245 246 243 236 229 239 240 243 232 234 241 241 232 228 226 223 219 210 212 218 220 218 214 209 230 228 240 253 224 174 202 215 105 201 197 207 212 204 209 209 209 214 201 207 182
292 300 301 297 284 274 277 277 273 273 274 264 239 223 209 211 208 210 210 220 228 240 243 247 247 250 250 254 254 248 243 244 244 228 237 239 245 236 237 239 249 243 235 227 224 222 218 218 217 208 215 224 216 219 228 217 240 236 215 210 176 216 200 193 204 208 209 213 209 212 211 205 213 209
314 306 303 299 296 289 289 285 285 268 256 249 249 242 231 228 224 226 227 230 235 242 241 245 247 251 247 248 246 248 243 245 248 239 235 240 250 250 255 259 259 261 266 259 252 240 229 226 223 217 218 217 222 227 214 213 223 228 232 211 210 237 160 187 198 214 206 188 194 217 214 208 211 214
296 295 292 300 299 294 294 295 293 289 277 264 245 239 232 228 230 230 222 229 235 238 239 244 245 251 250 251 247 242 244 244 246 245 248 245 246 255 243 251 260 268 271 265 248 253 247 249 238 229 223 225 225 226 223 232 227 219 227 213 202 222 221 212 201 201 151 171 214 217 222 216 219 215
285 288 291 289 287 288 288 288 286 284 279 276 268 256 248 242 239 237 236 236 241 237 234 240 243 246 249 253 250 243 244 252 247 238 227 244 233 241 244 251 255 250 249 256 254 249 244 237 224 236 245 244 240 230 225 233 243 225 222 213 192 215 222 206 211 181 177 193 197 204 219 228 222 217
273 296 287 281 278 270 269 267 272 269 266 261 261 261 255 245 244 243 245 246 243 240 238 240 242 244 242 245 245 244 245 247 249 249 237 238 241 241 243 245 252 250 248 253 253 242 224 233 215 231 241 257 267 263 235 234 252 248 245 228 201 213 219 205 198 189 193 205 185 208 224 232 231 220
292 300 294 291 284 281 275 269 266 263 260 259 256 256 252 250 241 242 246 245 243 242 239 237 238 241 241 242 244 243 246 245 251 252 256 242 242 244 245 246 252 253 243 247 251 234 206 213 196 211 225 224 232 266 266 213 214 230 235 245 219 214 221 200 196 187 186 200 201 206 218 225 234 221
297 297 296 295 291 287 282 281 278 271 263 258 256 251 252 253 247 242 245 241 240 240 240 237 237 236 239 240 244 242 241 240 246 246 246 245 245 249 252 255 252 252 251 247 247 242 209 212 200 203 213 218 230 248 253 201 221 216 208 228 236 217 214 197 178 193 202 197 202 206 216 221 236 233
300 297 298 295 296 296 291 289 285 282 276 268 262 261 255 253 254 250 245 242 240 240 239 236 239 236 238 236 237 242 243 241 245 249 248 247 251 252 248 253 256 251 250 253 249 245 228 225 210 206 201 214 224 238 257 229 190 229 217 212 224 225 198 188 193 206 208 200 210 212 213 231 234 236
297 323 332 332 333 333 330 327 319 309 301 287 276 265 263 258 255 253 249 246 246 243 244 241 238 232 234 234 231 239 244 244 242 242 245 248 246 250 252 249 254 254 250 258 252 248 236 230 220 206 201 207 218 226 233 230 227 208 208 209 216 223 208 195 216 215 211 205 218 222 226 241 339 300
3 356 350 351 344 344 340 337 335 334 332 328 322 313 296 278 258 254 254 251 245 242 242 244 244 239 233 232 237 241 244 246 246 245 240 242 247 248 251 251 252 258 256 254 257 249 239 233 212 206 204 216 224 232 192 202 264 250 246 230 214 211 219 191 213 216 221 213 188 190 227 217 231 230
354 353 350 345 341 338 335 329 326 324 321 321 321 322 323 320 308 285 267 256 249 248 248 246 241 233 237 238 236 235 244 247 243 240 238 239 244 248 251 251 255 251 250 257 254 251 242 232 188 173 180 211 240 22 43 280 254 257 234 227 213 216 222 214 212 213 226 189 165 200 213 210 225 213
348 343 339 341 335 330 325 322 320 317 317 319 319 319 318 313 309 316 310 283 265 254 249 248 236 211 234 240 243 241 243 251 250 240 234 235 243 248 254 251 248 252 241 248 253 253 273 152 158 160 183 185 172 185 230 237 249 260 264 251 228 210 217 222 226 226 221 160 151 193 220 264 245 225
335 328 324 327 323 316 316 314 314 313 314 316 316 318 315 312 314 316 315 317 315 307 285 263 223 193 232 250 243 243 245 248 246 241 236 233 235 243 251 250 243 247 246 252 257 254 137 186 172 185 189 191 201 194 227 241 246 256 266 267 258 185 209 226 227 231 234 208 194 194 197 197 145 199
317 313 313 318 318 318 314 309 305 306 310 313 312 313 312 315 314 311 312 315 315 311 319 322 311 251 233 249 251 245 240 245 246 240 234 233 234 238 246 253 251 250 249 250 260 253 194 201 200 194 192 207 202 205 230 243 253 249 260 268 279 273 231 139 182 262 255 253 259 248 234 217 207 213
308 308 308 314 313 309 308 304 305 309 309 307 309 310 309 308 304 306 309 309 312 316 317 316 312 309 302 292 280 262 253 248 251 248 243 241 241 243 246 250 254 255 252 248 248 253 212 207 214 210 208 208 202 210 227 233 249 264 260 259 270 266 254 143 148 181 227 245 250 239 246 254 259 261